Flag for Germany Weather past 2 weeks in Konstanz, Baden-Württemberg, Germany

Now
32 °F

Snow flurries. Overcast.


Feels Like: 28 °F
Forecast: 24 / 35 °F
Wind: 3 mph from West

Location: Konstanz

Current Time: Feb 1, 2015 at 9:05:55 AM

Latest Report: Feb 1, 2015 at 8:00 AM


Visibility: 6 mi

Pressure: 29.29 "Hg

Humidity: 85%

Dew point: 28 °F

Location of KonstanzLocation

Historic Weather in Konstanz — Graph

°F

Konstanz temperature yesterday

Maximum temperature yesterday: 39 °F (at 4:00 PM)
Minimum temperature yesterday: 32 °F (at 8:00 AM)
Average temperature yesterday: 35 °F

Past Weeks' High & Low Weather Summary

 TemperatureHumidityPressure
High39 °F (Jan 19, 2:00 PM)100% (Jan 27, 8:00 AM)30.47 "Hg (Jan 27, 8:00 AM)
Low30 °F (Jan 25, 8:00 AM)59% (Jan 31, 4:00 PM)28.88 "Hg (Jan 30, 12:00 AM)
Average34 °F87%29.89 "Hg
* Reported Jan 17 8:00 AM — Feb 1 8:00 AM, Konstanz, Weather by CustomWeather, © 2014

Note: Actual official high and low records may vary slightly from our data, if they occured in-between our weather recording intervals... More about our weather records

Advertising

Konstanz weather history for previous 24 hours

 ConditionsComfort  
Time TempWeatherWind HumidityBarometerVisibility
8:00 AM
Feb 1
32 °FSnow flurries. Overcast.3 mph85%29.29 "Hg6 mi
7:00 AM32 °FLight snow. Overcast.6 mph89%29.26 "Hg19 mi
6:00 AM30 °FLight snow. Ice fog.2 mph96%29.26 "Hg1 mi
5:00 AM31 °FPassing clouds.3 mph89%29.23 "Hg18 mi
4:00 AM31 °FOvercast.1 mph91%29.23 "Hg15 mi
3:00 AM32 °FOvercast.2 mph89%29.23 "Hg19 mi
2:00 AM31 °FPassing clouds.2 mph90%29.26 "Hg17 mi
1:00 AM32 °FPassing clouds.3 mph89%29.23 "Hg22 mi
12:00 AM33 °FOvercast.3 mph88%29.23 "Hg19 mi
11:00 PM
Jan 31
34 °FOvercast.3 mph85%29.23 "Hg16 mi
10:00 PM34 °FOvercast.2 mph85%29.23 "Hg19 mi
9:00 PM34 °FLight snow. Overcast.3 mph84%29.21 "Hg12 mi
8:00 PM34 °FOvercast.5 mph85%29.21 "Hg16 mi
7:00 PM34 °FOvercast.5 mph85%29.21 "Hg12 mi
6:00 PM34 °FLight snow. Overcast.3 mph88%29.18 "Hg4 mi
5:00 PM36 °FLight snow. Overcast.5 mph73%29.15 "Hg12 mi
4:00 PM39 °FOvercast.3 mph59%29.12 "Hg22 mi
3:00 PM38 °FOvercast.2 mph61%29.12 "Hg22 mi
2:00 PM38 °FOvercast.3 mph60%29.12 "Hg28 mi
1:00 PM38 °FOvercast.5 mph61%29.12 "Hg28 mi
12:00 PM37 °FOvercast.3 mph66%29.12 "Hg28 mi
11:00 AM37 °FPartly sunny.3 mph67%29.12 "Hg28 mi
10:00 AM35 °FScattered clouds.2 mph73%29.12 "Hg28 mi
9:00 AM33 °FScattered clouds.3 mph84%29.12 "Hg19 mi
Weather by CustomWeather, © 2014

See weather overviewHow to use our weather pages